Starlink 32643

operational
NORAD ID: 62233 Int'l Des: 2024-231 Owner: SPXS Country: US Constellation: starlink
LEOCIRCULAR

Über Starlink 32643

Beschreibung wird geladen...

Live-Position

3D-Globus wird geladen...

Nächste Überflüge

Höhenverlauf

Altitude vs Time

uPlot chart will show altitude changes over time

Zweizeiliger Elementsatz

1 62233U 24231R 25306.09822865 .00030184 00000-0 10262-2 0 9993
2 62233 53.1614 79.4919 0000868 259.3530 100.7373 15.30227926 52405
Epoch: 2. Nov. 2025 • Age: 36 hours

Aktueller Status

Höhe 481.9 km
Geschwindigkeit 7.63 km/s
Subsatellitenpunkt 52.55°N, 115.62°W
Startdatum 5. Dez. 2024
Alter 0.9 years
Typ internet

Technische Details

Klassifizierung Payload
Masse 730.00 kg
Trockenmasse 700.00 kg
Gesamtmasse 730.00 kg
Länge 0.30 m
Durchmesser 4.10 m
Spannweite 29.00 m
Form Box + pan
Hersteller SPXS
Bus-Typ Starlink V2M
Phasenstatus In Orbit
Besitzer/Staat SPXS/US

Große Konstellationen

Loading constellations...